Location: Calvatone
(45.1167°N, 10.4333°E)
Time: 12:19:42
(UTC+00:00)

STRAND 1 - Visible Passes

Search period start: 01 December 2023 00:00
Search period end: 11 December 2023 00:00
Orbit: 765 x 779 km, 98.4° (Epoch: 30 November)

Date Brightness Start Highest point End Pass type
(mag) Time Alt. Az. Time Alt. Az. Time Alt. Az.
01 Dec ? 03:16:07 10° E 03:18:18 13° ENE 03:20:29 10° NNE visible
01 Dec ? 04:51:31 10° SSE 04:56:38 83° ENE 05:01:46 10° NNW visible
01 Dec ? 17:02:58 22° ENE 17:04:13 24° E 17:08:19 10° SSE visible
01 Dec ? 18:43:20 45° WNW 18:43:33 45° WNW 18:48:21 10° SW visible
02 Dec ? 04:17:19 10° SE 04:22:05 41° ENE 04:26:52 10° N visible
02 Dec ? 05:57:05 10° SSW 06:01:21 27° W 06:05:39 10° NW visible
02 Dec ? 16:27:54 11° ENE 16:29:08 12° E 16:30:51 10° ESE visible
02 Dec ? 18:08:15 67° NNE 18:08:59 90° WNW 18:14:04 10° SSW visible
02 Dec ? 19:48:37 13° WNW 19:48:37 13° WNW 19:49:52 10° W visible
03 Dec ? 03:43:51 10° ESE 03:47:42 22° ENE 03:51:33 10° NNE visible
03 Dec ? 05:21:29 10° S 05:26:28 54° W 05:31:29 10° NNW visible
03 Dec ? 17:33:11 39° ENE 17:34:13 44° E 17:39:05 10° S visible
03 Dec ? 19:13:32 25° WNW 19:13:32 25° WNW 19:17:15 10° WSW visible
04 Dec ? 03:11:47 10° ENE 03:13:30 12° NE 03:15:13 10° NE visible
04 Dec ? 04:46:40 10° SSE 04:51:46 76° ENE 04:56:53 10° N visible
04 Dec ? 16:58:06 20° ENE 16:59:18 22° E 17:03:12 10° SE visible
04 Dec ? 18:38:27 49° WNW 18:38:41 49° WNW 18:43:35 10° SW visible
05 Dec ? 04:12:33 10° SE 04:17:14 38° ENE 04:21:55 10° N visible
05 Dec ? 05:52:01 10° SSW 05:56:26 29° W 06:00:52 10° NW visible
05 Dec ? 16:23:25 10° ENE 16:24:10 10° E 16:24:56 10° E visible
05 Dec ? 18:03:21 66° NNE 18:04:06 83° ESE 18:09:10 10° SSW visible
05 Dec ? 19:43:43 14° WNW 19:43:43 14° WNW 19:45:22 10° W visible
06 Dec ? 03:39:13 10° ESE 03:42:52 20° ENE 03:46:32 10° NNE visible
06 Dec ? 05:16:33 10° S 05:21:34 59° WSW 05:26:38 10° NNW visible
06 Dec ? 17:28:15 36° ENE 17:29:19 40° E 17:34:05 10° SSE visible
06 Dec ? 19:08:36 28° WNW 19:08:36 28° WNW 19:12:33 10° WSW visible
07 Dec ? 03:07:40 10° ENE 03:08:41 11° NE 03:09:42 10° NE visible
07 Dec ? 04:41:49 10° SSE 04:46:53 69° ENE 04:51:58 10° N visible
07 Dec ? 16:53:08 19° ENE 16:54:21 20° E 16:58:03 10° SE visible
07 Dec ? 18:33:30 53° NW 18:33:49 54° WNW 18:38:46 10° SSW visible
08 Dec ? 04:07:48 10° SE 04:12:22 35° ENE 04:16:57 10° N visible
08 Dec ? 05:46:58 10° SSW 05:51:30 32° W 05:56:04 10° NNW visible
08 Dec ? 17:58:23 61° NE 17:59:11 75° ESE 18:04:17 10° S visible
08 Dec ? 19:38:44 16° WNW 19:38:44 16° WNW 19:40:49 10° W visible
09 Dec ? 03:34:35 10° ESE 03:38:02 19° ENE 03:41:28 10° NNE visible
09 Dec ? 05:11:36 10° S 05:16:40 66° WSW 05:21:45 10° NNW visible
09 Dec ? 17:23:15 33° ENE 17:24:23 37° E 17:29:04 10° SSE visible
09 Dec ? 19:03:36 30° WNW 19:03:36 30° WNW 19:07:49 10° SW visible
10 Dec ? 04:36:58 10° SSE 04:41:59 62° ENE 04:47:02 10° N visible
10 Dec ? 16:48:08 17° ENE 16:49:24 18° E 16:52:51 10° SE visible
10 Dec ? 18:28:28 57° NW 18:28:56 60° WNW 18:33:55 10° SSW visible
